TimeEST,TemperatureF,Dew PointF,Humidity,Sea Level PressureIn,VisibilityMPH,Wind Direction,Wind SpeedMPH,Gust SpeedMPH,PrecipitationIn,Events,Conditions,WindDirDegrees,DateUTC
12:53 AM,26.1,21.9,84,30.39,4.0,Calm,Calm,-,N/A,,Clear,0,2013-01-08 05:53:00
1:53 AM,26.1,21.9,84,30.38,4.0,East,3.5,-,N/A,,Clear,80,2013-01-08 06:53:00
2:53 AM,26.1,21.9,84,30.38,4.0,ENE,3.5,-,N/A,,Clear,70,2013-01-08 07:53:00
3:53 AM,25.0,21.0,85,30.38,4.0,Calm,Calm,-,N/A,,Clear,0,2013-01-08 08:53:00
4:53 AM,26.1,21.0,81,30.38,4.0,Calm,Calm,-,N/A,,Haze,0,2013-01-08 09:53:00
5:53 AM,24.1,19.9,84,30.39,4.0,East,3.5,-,N/A,,Clear,100,2013-01-08 10:53:00
7:34 AM,21.2,19.4,93,30.39,2.5,ESE,5.8,-,N/A,,Clear,120,2013-01-08 12:34:00
7:53 AM,23.0,19.0,85,30.41,2.0,ESE,3.5,-,N/A,,Clear,120,2013-01-08 12:53:00
8:14 AM,24.8,19.4,80,30.39,4.0,Calm,Calm,-,N/A,,Clear,0,2013-01-08 13:14:00
9:53 AM,36.0,27.0,70,30.41,4.0,SW,4.6,-,N/A,,Haze,220,2013-01-08 14:53:00
10:53 AM,37.9,27.0,65,30.40,7.0,WSW,3.5,-,N/A,,Clear,250,2013-01-08 15:53:00
11:53 AM,39.9,28.0,63,30.38,7.0,Calm,Calm,-,N/A,,Clear,0,2013-01-08 16:53:00
12:53 PM,43.0,28.9,58,30.37,7.0,WNW,3.5,-,N/A,,Clear,300,2013-01-08 17:53:00
1:53 PM,45.0,28.9,53,30.37,7.0,Calm,Calm,-,N/A,,Clear,0,2013-01-08 18:53:00
2:53 PM,46.0,30.0,54,30.38,7.0,Calm,Calm,-,N/A,,Clear,0,2013-01-08 19:53:00
3:53 PM,44.1,30.0,58,30.38,6.0,Calm,Calm,-,N/A,,Haze,0,2013-01-08 20:53:00
4:53 PM,43.0,28.9,58,30.38,6.0,Calm,Calm,-,N/A,,Haze,0,2013-01-08 21:53:00
5:53 PM,37.9,28.0,68,30.39,7.0,Calm,Calm,-,N/A,,Clear,0,2013-01-08 22:53:00
6:53 PM,37.0,28.0,70,30.39,5.0,Calm,Calm,-,N/A,,Haze,0,2013-01-08 23:53:00
7:53 PM,33.1,27.0,78,30.40,5.0,Calm,Calm,-,N/A,,Haze,0,2013-01-09 00:53:00
8:53 PM,32.0,26.1,79,30.38,5.0,Calm,Calm,-,N/A,,Haze,0,2013-01-09 01:53:00
9:53 PM,32.0,27.0,82,30.40,4.0,ESE,3.5,-,N/A,,Haze,120,2013-01-09 02:53:00
10:53 PM,28.9,26.1,89,30.40,3.0,Calm,Calm,-,N/A,,Clear,0,2013-01-09 03:53:00